CDT,Max TemperatureF,Mean TemperatureF,Min TemperatureF,Max Dew PointF,MeanDew PointF,Min DewpointF,Max Humidity, Mean Humidity, Min Humidity, Max Sea Level PressureIn, Mean Sea Level PressureIn, Min Sea Level PressureIn, Max VisibilityMiles, Mean VisibilityMiles, Min VisibilityMiles, Max Wind SpeedMPH, Mean Wind SpeedMPH, Max Gust SpeedMPH,PrecipitationIn, CloudCover, Events, WindDirDegrees
2013-3-1,59,42,26,22,17,12,73,40,17,30.32,30.26,30.19,10,10,10,18,6,28,0.00,0,,1
2013-3-2,64,46,28,24,19,15,67,36,17,30.43,30.33,30.21,10,10,10,9,3,,0.00,0,,246
2013-3-3,81,62,42,17,12,3,32,18,5,30.20,29.98,29.80,10,10,10,24,11,31,0.00,0,,226
2013-3-4,81,68,55,28,18,6,24,16,9,29.98,29.81,29.72,10,10,10,25,12,34,0.00,1,,271
2013-3-5,56,44,32,35,21,16,68,42,24,30.45,30.33,30.03,10,10,5,34,16,45,0.00,1,,67
2013-3-6,62,47,32,17,13,9,46,28,16,30.34,30.22,30.08,10,10,10,20,9,29,0.00,0,,159
2013-3-7,74,56,39,43,22,14,66,30,15,30.08,30.02,29.96,10,10,10,18,11,24,0.00,0,,181
2013-3-8,78,66,54,53,47,42,78,56,28,30.01,29.92,29.81,10,10,10,21,12,30,0.00,3,,188
2013-3-9,66,59,51,54,34,11,96,48,15,29.89,29.81,29.74,10,10,7,26,16,39,0.00,4,,265
2013-3-10,53,44,36,26,18,12,63,36,21,30.18,30.08,29.88,10,10,7,25,16,37,0.00,2,,349
2013-3-11,69,50,31,20,17,12,62,32,12,30.17,30.07,29.96,10,10,10,17,6,26,0.00,0,,255
2013-3-12,63,53,42,28,21,15,49,30,20,30.35,30.15,29.98,10,10,10,24,13,32,0.00,0,,20
2013-3-13,70,51,32,26,24,20,67,36,18,30.41,30.33,30.24,10,10,10,18,5,23,0.00,0,,165
2013-3-14,81,64,48,35,26,19,51,29,10,30.28,30.21,30.14,10,10,10,16,10,22,0.00,0,,213
2013-3-15,86,68,51,37,27,15,52,27,7,30.17,30.04,29.90,10,10,10,21,13,30,0.00,0,,220
2013-3-16,89,70,51,38,28,6,52,27,5,29.90,29.80,29.69,10,10,10,23,14,30,0.00,0,,240
2013-3-17,78,59,40,39,34,23,84,45,13,29.91,29.80,29.67,10,10,7,18,9,26,0.00,0,,338
2013-3-18,73,61,49,32,24,17,38,26,13,30.04,29.91,29.76,10,10,10,18,8,24,0.00,0,,237
2013-3-19,73,57,41,37,25,17,61,30,12,30.18,29.98,29.92,10,10,4,18,8,25,0.00,0,Rain,46
2013-3-20,65,50,34,36,30,25,90,49,23,30.34,30.18,29.96,10,10,7,16,8,23,0.00,0,Rain,107
2013-3-21,83,66,50,48,35,17,90,45,11,29.94,29.73,29.58,10,10,7,21,12,29,0.00,0,,241
2013-3-22,67,56,45,41,34,21,80,46,19,29.86,29.76,29.66,10,10,10,18,10,24,0.00,2,,48
2013-3-23,76,56,36,38,24,-10,88,43,6,30.04,29.77,29.65,10,9,2,39,13,50,0.00,2,,300
2013-3-24,49,36,24,22,11,6,59,38,18,30.26,30.14,30.03,10,10,5,28,13,38,0.00,0,,23
2013-3-25,50,36,22,12,8,4,51,30,18,30.35,30.25,30.11,10,10,10,14,9,21,0.00,0,,94
2013-3-26,63,46,29,19,13,10,45,28,14,30.36,30.25,30.12,10,10,10,21,11,30,0.00,0,,164
2013-3-27,78,60,41,41,30,20,63,36,16,30.13,30.06,29.99,10,10,10,17,11,24,0.00,0,,184
2013-3-28,81,62,44,50,43,32,94,55,17,30.12,30.05,29.99,10,10,10,18,10,25,0.00,0,,184
2013-3-29,81,64,47,54,48,34,97,61,18,30.12,30.06,29.97,10,10,7,17,8,23,0.00,1,Rain,196
2013-3-30,85,66,47,55,39,20,99,50,10,30.07,30.00,29.92,10,9,0,14,7,24,0.00,0,Fog,259
2013-3-31,76,66,55,45,37,24,65,35,15,30.10,30.02,29.92,10,10,7,29,11,33,0.00,1,,67